Showing default

FR 1, 1814

Orbit data source: Space-Track

FR 1, 1814 is a payload satellite owned by CNES (FR) in LEO that was launched on Mon, 06 Dec 1965 UTC via an SCOUT X-4 launch vehicle from the Air Force Western Test Range (AFWTR). Payload-class satellites include a variety of spacecraft equipped with specific instruments for various scientific and technological missions. These include communications satellites like Starlink; space stations such as the ISS; scientific satellites like the Hubble; Earth observation satellites from companies like Planet Labs, Umbra, and HawkEye 360; GPS; miniature CubeSats for education and research; and military/defense satellites.

Loading next visibility...
Identifier
1814, 1965-101A
Orbit
LEO
Country
Flag of FRFR
Related business
Manufacturer
Nord
Mission
Spacecraft
Bus & Motor
FR, Unknown motor
Mass
62 kg wet, 62 kg dry
Launch date (UTC)
1965-12-06 (60 years ago)
Launch vehicle
SCOUT X-4
Launch site
Air Force Western Test Range (AFWTR)
Object type
Payload
Rocket body
Debris
Shape & HBR
Unknown
Radar Cross Section
Medium (>0.1 m² and <1 m²)

Expand to show TLE details & history
Last TLE update: 1 day ago

TLE from 1 day ago
0 FR 1
1 01814U 65101A   26135.18567380  .00000434  00000-0  72371-4 0  9997
2 01814  75.8668  47.9597 0005776 188.8065 171.3017 14.71624901 51245
Epoch: 2026-05-15T04:27Z
TLE epoch observation values (Epoch: 2026-05-15T04:27:22.216Z)
Latitude
0.00002°
Longitude
108.19652°
Altitude
662.657 km
Speed
7.524 km/s
True Right ascension
03h 11m 50s
True Declination
0° 00' 00"
Sunlit
Object was in daylight at epoch
Visualization orbit readout
Latitude
Unknown
Longitude
Unknown
Altitude
Unknown
Speed
Unknown
Apparent Right ascension
Unknown
Apparent Declination
Unknown
Sunlit
N/A
Visualization observer readout
Local Sidereal Time
19:38:50
Azimuth
Unknown
Elevation
Unknown
Doppler factor
Unknown
Orbital elements
Apogee altitude
657.381 km
Perigee altitude
649.259 km
Semi-major axis
7,031.457 km
Eccentricity
0.00058
Inclination
75.8668°
RAAN
47.9597°
Arg. of periapsis
188.8065°
True anomaly
171.3117°
Mean anomaly
171.3017°
Eccentric anomaly
171.3067°
Mean motion
3.68108 °/min
Orbital period
97.8 mins
BSTAR
0.000072371
Loading maneuver chart data...
Computing Atmospheric mass density...
Loading historical data...
Loading historical data...
Loading historical data...
Loading historical data...
Loading historical data...
Loading historical data...
Loading historical data...

Documentation

Showing up to 5 results
|